EW8974 Weather Reports


time (UTC)temp
C
wind
direction
speed
KPH
gust
KPH
rain 1hr
cm
rain 24hr
cm
rain mn
cm
humidity
%
barometer
mb
20260831141547 27 191 3.2 16.1 0.00 0.00 0.00 70 1010.7
20260831141047 27 262 4.8 12.9 0.00 0.00 0.00 71 1010.6
20260831140546 27 301 3.2 12.9 0.00 0.00 0.00 72 1010.7
20260831140046 27 326 4.8 12.9 0.00 0.00 0.00 72 1010.7
20260831135546 26 340 1.6 12.9 0.00 0.00 0.00 74 1010.6
20260831135045 26 249 3.2 9.7 0.00 0.00 0.00 75 1010.5
20260831134545 26 259 1.6 12.9 0.00 0.00 0.00 76 1010.4
20260831134042 26 268 1.6 12.9 0.00 0.00 0.00 77 1010.4
20260831133542 26 221 1.6 9.7 0.00 0.00 0.00 78 1010.3
20260831133048 25 314 1.6 9.7 0.00 0.00 0.00 79 1010.4
20260831132542 25 160 1.6 9.7 0.00 0.00 0.00 81 1010.3
20260831132041 25 242 0.0 6.4 0.00 0.00 0.00 81 1010.1
20260831131541 25 286 1.6 6.4 0.00 0.00 0.00 81 1010.0
20260831131040 25 201 0.0 6.4 0.00 0.00 0.00 81 1010.1
20260831130540 25 245 0.0 3.2 0.00 0.00 0.00 81 1010.1
20260831130039 25 226 0.0 6.4 0.00 0.00 0.00 81 1009.9
20260831125539 25 226 0.0 6.4 0.00 0.00 0.00 81 1009.9
20260831125041 25 273 0.0 4.8 0.00 0.00 0.00 81 1009.9
20260831124539 25 243 0.0 4.8 0.00 0.00 0.00 81 1009.9
20260831124038 25 222 0.0 6.4 0.00 0.00 0.00 81 1009.8
20260831123537 25 228 0.0 6.4 0.00 0.00 0.00 81 1009.7
20260831123038 24 229 1.6 4.8 0.00 0.00 0.00 81 1009.6
20260831122536 24 193 0.0 4.8 0.00 0.00 0.00 80 1009.5
20260831122037 25 231 0.0 3.2 0.00 0.00 0.00 80 1009.2
20260831121543 25 226 0.0 3.2 0.00 0.00 0.00 79 1009.3
20260831121034 25 197 0.0 8.0 0.00 0.00 0.00 79 1009.1
20260831120532 25 198 1.6 8.0 0.00 0.00 0.00 79 1009.1
20260831120038 25 250 0.0 4.8 0.00 0.00 0.00 79 1009.0
20260831115534 25 198 0.0 4.8 0.00 0.00 0.00 79 1008.9
20260831115036 25 332 0.0 4.8 0.00 0.00 0.00 79 1008.8
20260831114547 25 227 0.0 4.8 0.00 0.00 0.00 78 1008.8
20260831114032 25 229 0.0 4.8 0.00 0.00 0.00 78 1008.8
20260831113532 25 200 0.0 6.4 0.00 0.00 0.00 78 1008.8
20260831113030 25 212 1.6 8.0 0.00 0.00 0.00 78 1008.8
20260831112533 25 210 1.6 8.0 0.00 0.00 0.00 78 1008.7
20260831112030 25 233 0.0 4.8 0.00 0.00 0.00 78 1008.7
20260831111529 24 230 0.0 3.2 0.00 0.00 0.00 78 1008.7
20260831111031 25 218 0.0 3.2 0.00 0.00 0.00 78 1008.7
20260831110529 25 218 0.0 3.2 0.00 0.00 0.00 78 1008.8
20260831110029 25 199 0.0 3.2 0.00 0.00 0.00 77 1008.7
20260831105530 25 230 0.0 3.2 0.00 0.00 0.00 77 1008.6
20260831105027 25 230 0.0 3.2 0.00 0.00 0.00 77 1008.6
20260831104533 25 238 0.0 4.8 0.00 0.00 0.00 76 1008.6
20260831104025 25 227 0.0 4.8 0.00 0.00 0.00 76 1008.5
20260831103525 25 210 0.0 4.8 0.00 0.00 0.00 76 1008.6
20260831103025 25 174 0.0 4.8 0.00 0.00 0.00 76 1008.6
20260831102528 25 215 0.0 4.8 0.00 0.00 0.00 76 1008.6
20260831102024 25 198 0.0 4.8 0.00 0.00 0.00 76 1008.6
20260831101523 25 236 0.0 3.2 0.00 0.00 0.00 75 1008.6
20260831101023 25 203 0.0 6.4 0.00 0.00 0.00 75 1008.5
20260831100523 25 203 0.0 9.7 0.00 0.00 0.00 75 1008.5
20260831100023 26 195 0.0 9.7 0.00 0.00 0.00 74 1008.5
20260831095524 26 183 0.0 3.2 0.00 0.00 0.00 74 1008.5
20260831095021 26 250 0.0 4.8 0.00 0.00 0.00 73 1008.5
20260831094521 26 250 0.0 4.8 0.00 0.00 0.00 73 1008.5
20260831094021 26 232 0.0 8.0 0.00 0.00 0.00 72 1008.3
20260831093526 26 263 1.6 8.0 0.00 0.00 0.00 72 1008.4
20260831093022 26 237 1.6 9.7 0.00 0.00 0.00 72 1008.4
20260831092522 26 193 3.2 9.7 0.00 0.00 0.00 72 1008.3
20260831092023 26 187 0.0 11.3 0.00 0.00 0.00 71 1008.2
20260831091519 26 231 3.2 11.3 0.00 0.00 0.00 71 1008.2
20260831091022 26 250 1.6 8.0 0.00 0.00 0.00 71 1008.2
20260831090518 26 236 0.0 4.8 0.00 0.00 0.00 71 1008.3
20260831090018 27 186 0.0 8.0 0.00 0.00 0.00 70 1008.1
20260831085519 27 257 0.0 9.7 0.00 0.00 0.00 70 1008.2
20260831085118 27 232 1.6 9.7 0.00 0.00 0.00 70 1008.1
20260831084517 27 220 3.2 9.7 0.00 0.00 0.00 69 1008.2
20260831084016 27 176 1.6 14.5 0.00 0.00 0.00 69 1008.2
20260831083516 27 182 3.2 14.5 0.00 0.00 0.00 69 1008.1
20260831083016 27 266 1.6 9.7 0.00 0.00 0.00 68 1008.1
20260831082514 27 250 3.2 9.7 0.00 0.00 0.00 68 1008.0
20260831082012 27 266 3.2 9.7 0.00 0.00 0.00 68 1008.0
20260831081512 27 228 3.2 8.0 0.00 0.00 0.00 67 1008.1
20260831081013 27 179 1.6 11.3 0.00 0.00 0.00 67 1008.1
20260831080509 27 276 3.2 9.7 0.00 0.00 0.00 67 1008.0
20260831080012 27 239 4.8 11.3 0.00 0.00 0.00 66 1008.0
20260831075513 27 314 3.2 11.3 0.00 0.00 0.00 67 1008.0
20260831075008 27 254 1.6 11.3 0.00 0.00 0.00 66 1008.0
20260831074508 27 240 1.6 11.3 0.00 0.00 0.00 65 1008.0
20260831074009 27 215 3.2 8.0 0.00 0.00 0.00 65 1008.0
20260831073508 27 220 3.2 8.0 0.00 0.00 0.00 64 1008.0
20260831073008 27 274 1.6 6.4 0.00 0.00 0.00 64 1008.0
20260831072510 27 204 1.6 6.4 0.00 0.00 0.00 64 1007.9
20260831072006 27 182 1.6 6.4 0.00 0.00 0.00 63 1008.0
20260831071515 27 245 3.2 9.7 0.00 0.00 0.00 62 1008.0
20260831071006 27 235 3.2 12.9 0.00 0.00 0.00 62 1008.0
20260831070506 27 191 4.8 12.9 0.00 0.00 0.00 61 1008.1
20260831070006 27 256 4.8 12.9 0.00 0.00 0.00 61 1008.2
20260831065506 27 229 3.2 9.7 0.00 0.00 0.00 60 1008.2
20260831065005 27 251 1.6 12.9 0.00 0.00 0.00 60 1008.2
20260831064605 27 204 3.2 11.3 0.00 0.00 0.00 59 1008.1
20260831064003 27 236 3.2 9.7 0.00 0.00 0.00 59 1008.1
20260831063502 27 210 1.6 9.7 0.00 0.00 0.00 59 1008.1
20260831063001 27 174 1.6 9.7 0.00 0.00 0.00 59 1008.1
20260831062602 26 153 1.6 9.7 0.00 0.00 0.00 60 1008.1
20260831062059 26 208 1.6 6.4 0.00 0.00 0.00 61 1008.1
20260831061558 25 235 0.0 3.2 0.00 0.00 0.00 63 1008.1
20260831061058 25 229 0.0 1.6 0.00 0.00 0.00 64 1008.2
20260831060557 25 229 0.0 0.0 0.00 0.00 0.00 63 1008.1
20260831055554 25 229 0.0 0.0 0.00 0.00 0.00 62 1008.2
20260831055054 26 229 0.0 1.6 0.00 0.00 0.00 62 1008.1
20260831054555 26 229 0.0 1.6 0.00 0.00 0.00 61 1008.0
20260831054053 26 229 0.0 3.2 0.00 0.00 0.00 61 1008.1
20260831053553 26 229 0.0 3.2 0.00 0.00 0.00 61 1008.1
20260831053107 26 247 0.0 3.2 0.00 0.00 0.00 62 1008.1
20260831052552 26 247 0.0 3.2 0.00 0.00 0.00 62 1008.1
20260831052050 26 228 0.0 3.2 0.00 0.00 0.00 62 1008.1
20260831051549 26 228 0.0 3.2 0.00 0.00 0.00 63 1008.0
20260831051049 25 290 0.0 0.0 0.00 0.00 0.00 63 1007.9
20260831050548 25 290 0.0 1.6 0.00 0.00 0.00 63 1007.9
20260831050106 25 290 0.0 1.6 0.00 0.00 0.00 63 1007.8
20260831045549 26 290 0.0 0.0 0.00 0.00 0.00 63 1007.8
20260831045050 26 290 0.0 0.0 0.00 0.00 0.00 62 1007.8
20260831044549 26 290 0.0 0.0 0.00 0.00 0.00 61 1007.7
20260831044047 26 290 0.0 0.0 0.00 0.00 0.00 61 1007.8
20260831043548 26 290 0.0 0.0 0.00 0.00 0.00 61 1007.8
20260831043052 26 290 0.0 0.0 0.00 0.00 0.00 61 1007.8
20260831042547 26 290 0.0 0.0 0.00 0.00 0.00 60 1007.8
20260831042047 26 290 0.0 1.6 0.00 0.00 0.00 61 1007.9
20260831041556 26 290 0.0 1.6 0.00 0.00 0.00 61 1007.8
20260831041047 26 290 0.0 0.0 0.00 0.00 0.00 61 1008.0
20260831040546 26 290 0.0 0.0 0.00 0.00 0.00 61 1007.9
20260831040046 26 290 0.0 0.0 0.00 0.00 0.00 59 1007.7
20260831035545 26 290 0.0 0.0 0.00 0.00 0.00 59 1007.7
20260831035045 26 290 0.0 0.0 0.00 0.00 0.00 59 1007.7
20260831034546 26 290 0.0 0.0 0.00 0.00 0.00 59 1007.5
20260831034045 26 290 0.0 0.0 0.00 0.00 0.00 59 1007.5
20260831033545 26 290 0.0 0.0 0.00 0.00 0.00 59 1007.5
20260831033104 27 290 0.0 0.0 0.00 0.00 0.00 58 1007.4
20260831032545 27 290 0.0 0.0 0.00 0.00 0.00 57 1007.5
20260831032045 27 290 0.0 0.0 0.00 0.00 0.00 57 1007.3
20260831031552 27 290 0.0 0.0 0.00 0.00 0.00 57 1007.4
20260831031044 27 290 0.0 0.0 0.00 0.00 0.00 57 1007.4
20260831030544 27 290 0.0 0.0 0.00 0.00 0.00 56 1007.3
20260831030047 27 290 0.0 0.0 0.00 0.00 0.00 56 1007.4
20260831025544 27 290 0.0 0.0 0.00 0.00 0.00 55 1007.3
20260831025044 27 290 0.0 0.0 0.00 0.00 0.00 55 1007.2
20260831024544 27 290 0.0 0.0 0.00 0.00 0.00 55 1007.2
20260831024046 27 290 0.0 0.0 0.00 0.00 0.00 55 1007.1
20260831023543 28 290 0.0 0.0 0.00 0.00 0.00 54 1006.9
20260831023044 28 290 0.0 0.0 0.00 0.00 0.00 54 1006.9
20260831022543 28 290 0.0 0.0 0.00 0.00 0.00 54 1006.9
20260831022043 28 290 0.0 0.0 0.00 0.00 0.00 53 1006.8
20260831021545 28 290 0.0 0.0 0.00 0.00 0.00 53 1006.8
20260831021043 28 290 0.0 0.0 0.00 0.00 0.00 52 1006.8
20260831020543 28 290 0.0 0.0 0.00 0.00 0.00 51 1006.7
20260831020043 29 290 0.0 0.0 0.00 0.00 0.00 51 1006.6
20260831015542 29 290 0.0 0.0 0.00 0.00 0.00 51 1006.6
20260831015042 29 290 0.0 0.0 0.00 0.00 0.00 50 1006.5
20260831014542 30 290 0.0 0.0 0.00 0.00 0.00 49 1006.5
20260831014042 30 290 0.0 0.0 0.00 0.00 0.00 48 1006.2
20260831013542 30 290 0.0 0.0 0.00 0.00 0.00 48 1006.3
20260831013053 31 290 0.0 1.6 0.00 0.00 0.00 47 1006.3
20260831012542 31 290 0.0 0.0 0.00 0.00 0.00 46 1006.3
20260831012041 31 290 0.0 0.0 0.00 0.00 0.00 45 1006.2
20260831011544 32 290 0.0 0.0 0.00 0.00 0.00 44 1006.1
20260831011040 32 290 0.0 0.0 0.00 0.00 0.00 43 1006.1
20260831010540 32 290 0.0 0.0 0.00 0.00 0.00 42 1006.0
20260831010045 33 290 0.0 1.6 0.00 0.00 0.00 41 1006.0
20260831005540 33 290 0.0 1.6 0.00 0.00 0.00 40 1006.0
20260831005041 34 286 0.0 1.6 0.00 0.00 0.00 39 1005.9
20260831004544 35 148 0.0 1.6 0.00 0.00 0.00 39 1005.9
20260831004040 35 148 0.0 1.6 0.00 0.00 0.00 38 1005.9
20260831003540 36 142 0.0 3.2 0.00 0.00 0.00 36 1005.9
20260831003047 36 244 0.0 3.2 0.00 0.00 0.00 35 1005.8
20260831002539 36 246 0.0 3.2 0.00 0.00 0.00 35 1005.8
20260831002038 36 201 0.0 3.2 0.00 0.00 0.00 35 1005.9
20260831001538 37 207 0.0 4.8 0.00 0.00 0.00 34 1005.9
20260831001038 37 277 1.6 4.8 0.00 0.00 0.00 34 1006.0
20260831000538 37 195 0.0 9.7 0.00 0.00 0.00 34 1006.1
20260831000038 37 207 3.2 9.7 0.00 0.00 0.00 33 1006.0
20260830235541 38 196 3.2 8.0 0.00 0.00 0.00 32 1006.0
20260830235042 38 238 3.2 8.0 0.00 0.00 0.00 31 1006.1
20260830234545 38 243 0.0 4.8 0.00 0.00 0.00 33 1006.0
20260830234037 38 310 0.0 3.2 0.00 0.00 0.00 32 1006.0
20260830233540 38 202 0.0 6.4 0.00 0.00 0.00 32 1006.1
20260830233037 38 252 1.6 8.0 0.00 0.00 0.00 32 1006.0
20260830232537 38 193 1.6 12.9 0.00 0.00 0.00 32 1006.1
20260830232036 38 221 4.8 12.9 0.00 0.00 0.00 30 1006.0
20260830231539 39 198 1.6 6.4 0.00 0.00 0.00 30 1006.1
20260830231034 39 212 1.6 6.4 0.00 0.00 0.00 30 1006.1
20260830230533 40 223 1.6 4.8 0.00 0.00 0.00 30 1006.2
20260830230031 39 311 0.0 4.8 0.00 0.00 0.00 30 1006.2
20260830225531 38 210 1.6 6.4 0.00 0.00 0.00 32 1006.2
20260830225030 38 205 0.0 17.7 0.00 0.00 0.00 32 1006.2
20260830224530 38 171 4.8 17.7 0.00 0.00 0.00 31 1006.2
20260830224035 38 205 3.2 9.7 0.00 0.00 0.00 30 1006.1
20260830223530 38 139 1.6 8.0 0.00 0.00 0.00 32 1006.2
20260830223031 38 269 0.0 8.0 0.00 0.00 0.00 32 1006.2
20260830222528 37 290 0.0 9.7 0.00 0.00 0.00 34 1006.3
20260830222032 37 295 3.2 12.9 0.00 0.00 0.00 31 1006.4
20260830221527 38 160 3.2 12.9 0.00 0.00 0.00 30 1006.5
20260830221027 39 250 4.8 12.9 0.00 0.00 0.00 30 1006.4
20260830220526 39 357 1.6 8.0 0.00 0.00 0.00 30 1006.5
20260830220025 38 236 0.0 9.7 0.00 0.00 0.00 32 1006.4
20260830215525 38 137 1.6 12.9 0.00 0.00 0.00 33 1006.4
20260830215024 38 196 4.8 12.9 0.00 0.00 0.00 32 1006.4
20260830214524 38 195 0.0 4.8 0.00 0.00 0.00 33 1006.4
20260830214023 37 268 0.0 4.8 0.00 0.00 0.00 33 1006.4
20260830213526 37 165 0.0 11.3 0.00 0.00 0.00 34 1006.5
20260830213023 37 127 3.2 11.3 0.00 0.00 0.00 33 1006.5
20260830212522 37 277 0.0 11.3 0.00 0.00 0.00 35 1006.6
20260830212022 37 186 4.8 11.3 0.00 0.00 0.00 32 1006.7
20260830211521 38 221 3.2 9.7 0.00 0.00 0.00 32 1006.8
20260830211020 38 210 1.6 8.0 0.00 0.00 0.00 32 1006.8
20260830210521 38 224 1.6 12.9 0.00 0.00 0.00 30 1006.9
20260830210019 38 162 1.6 14.5 0.00 0.00 0.00 32 1007.0
20260830205523 38 209 4.8 17.7 0.00 0.00 0.00 31 1006.9
20260830205018 38 153 4.8 14.5 0.00 0.00 0.00 30 1007.0
20260830204518 38 240 3.2 14.5 0.00 0.00 0.00 31 1007.1
20260830204017 38 167 3.2 9.7 0.00 0.00 0.00 31 1007.3
20260830203517 38 231 3.2 16.1 0.00 0.00 0.00 31 1007.2
20260830203023 37 201 3.2 19.3 0.00 0.00 0.00 32 1007.3
20260830202517 38 231 3.2 16.1 0.00 0.00 0.00 33 1007.4
20260830202017 38 221 1.6 19.3 0.00 0.00 0.00 32 1007.4
20260830201514 38 229 8.0 17.7 0.00 0.00 0.00 31 1007.5
20260830201018 38 203 1.6 12.9 0.00 0.00 0.00 32 1007.6
20260830200512 38 236 4.8 12.9 0.00 0.00 0.00 32 1007.8
20260830200012 38 252 3.2 14.5 0.00 0.00 0.00 32 1007.7
20260830195511 38 155 4.8 17.7 0.00 0.00 0.00 31 1007.8
20260830195012 38 243 1.6 14.5 0.00 0.00 0.00 32 1007.9
20260830194510 38 193 6.4 14.5 0.00 0.00 0.00 31 1008.0
20260830194010 38 198 1.6 6.4 0.00 0.00 0.00 33 1008.1
20260830193507 38 248 1.6 6.4 0.00 0.00 0.00 33 1008.1
20260830193007 37 224 1.6 19.3 0.00 0.00 0.00 35 1008.2
20260830192508 37 259 6.4 19.3 0.00 0.00 0.00 34 1008.3
20260830192005 37 238 4.8 12.9 0.00 0.00 0.00 33 1008.3
20260830191505 37 245 1.6 11.3 0.00 0.00 0.00 36 1008.3
20260830191005 37 242 1.6 11.3 0.00 0.00 0.00 34 1008.4
20260830190505 37 231 3.2 11.3 0.00 0.00 0.00 35 1008.4
20260830190005 37 250 1.6 12.9 0.00 0.00 0.00 36 1008.5
20260830185505 37 221 6.4 12.9 0.00 0.00 0.00 34 1008.7
20260830185003 37 196 0.0 6.4 0.00 0.00 0.00 36 1008.7
20260830184502 37 178 1.6 11.3 0.00 0.00 0.00 36 1008.7
20260830184100 36 4 1.6 11.3 0.00 0.00 0.00 38 1008.8
20260830184000 36 214 4.8 11.3 0.00 0.00 0.00 38 1008.8
20260830183602 36 233 1.6 11.3 0.00 0.00 0.00 38 1008.7
20260830183115 36 224 6.4 17.7 0.00 0.00 0.00 39 1008.8
20260830182603 36 255 6.4 17.7 0.00 0.00 0.00 38 1008.9
20260830182059 36 250 6.4 12.9 0.00 0.00 0.00 39 1009.1
20260830181558 36 219 3.2 12.9 0.00 0.00 0.00 39 1009.2
20260830181101 36 198 3.2 16.1 0.00 0.00 0.00 38 1009.2
20260830180557 36 186 3.2 17.7 0.00 0.00 0.00 39 1009.3
20260830180104 36 266 1.6 17.7 0.00 0.00 0.00 39 1009.5
20260830175556 36 189 3.2 14.5 0.00 0.00 0.00 40 1009.5
20260830175059 36 179 3.2 11.3 0.00 0.00 0.00 40 1009.5
20260830174557 36 198 3.2 14.5 0.00 0.00 0.00 39 1009.6
20260830174058 36 153 8.0 14.5 0.00 0.00 0.00 38 1009.7
20260830173559 36 252 1.6 12.9 0.00 0.00 0.00 38 1009.8
20260830173110 36 194 0.0 16.1 0.00 0.00 0.00 41 1009.8
20260830172552 35 193 3.2 16.1 0.00 0.00 0.00 41 1010.0
20260830172055 35 338 4.8 16.1 0.00 0.00 0.00 41 1010.0
20260830171552 35 198 0.0 12.9 0.00 0.00 0.00 42 1010.0
20260830171051 35 180 4.8 16.1 0.00 0.00 0.00 41 1010.2
20260830170552 35 266 1.6 16.1 0.00 0.00 0.00 42 1010.3
20260830170054 35 203 3.2 14.5 0.00 0.00 0.00 43 1010.4
20260830165547 34 231 0.0 12.9 0.00 0.00 0.00 45 1010.3
20260830165046 34 193 3.2 14.5 0.00 0.00 0.00 44 1010.4
20260830164552 34 223 8.0 14.5 0.00 0.00 0.00 44 1010.5
20260830164045 34 285 4.8 14.5 0.00 0.00 0.00 44 1010.6
20260830163544 33 276 4.8 14.5 0.00 0.00 0.00 45 1010.6
20260830163054 33 258 3.2 9.7 0.00 0.00 0.00 47 1010.7
20260830162543 33 2 3.2 14.5 0.00 0.00 0.00 48 1010.6
20260830162040 33 225 4.8 14.5 0.00 0.00 0.00 47 1010.7
20260830161558 33 290 4.8 12.9 0.00 0.00 0.00 47 1010.6
20260830161035 33 172 3.2 16.1 0.00 0.00 0.00 50 1010.7
20260830160534 32 246 3.2 11.3 0.00 0.00 0.00 50 1010.6
20260830160033 32 255 3.2 12.9 0.00 0.00 0.00 50 1010.7
20260830155532 32 276 3.2 12.9 0.00 0.00 0.00 51 1010.6
20260830155032 32 229 1.6 8.0 0.00 0.00 0.00 52 1010.7
20260830154529 32 304 3.2 14.5 0.00 0.00 0.00 52 1010.4
20260830154029 31 338 4.8 14.5 0.00 0.00 0.00 54 1010.6
20260830153527 31 216 4.8 11.3 0.00 0.00 0.00 55 1010.7
20260830153042 31 235 1.6 11.3 0.00 0.00 0.00 56 1010.5
20260830152525 31 326 4.8 12.9 0.00 0.00 0.00 57 1010.7
20260830152024 30 243 4.8 12.9 0.00 0.00 0.00 59 1010.5
20260830151523 30 194 3.2 9.7 0.00 0.00 0.00 59 1010.5
20260830151024 30 212 3.2 9.7 0.00 0.00 0.00 61 1010.7
20260830150521 30 287 4.8 9.7 0.00 0.00 0.00 60 1010.6
20260830150019 29 206 3.2 11.3 0.00 0.00 0.00 61 1010.5
20260830145519 29 236 3.2 11.3 0.00 0.00 0.00 62 1010.6
20260830145018 29 253 3.2 11.3 0.00 0.00 0.00 62 1010.4
20260830144518 29 243 1.6 9.7 0.00 0.00 0.00 63 1010.5
20260830144018 28 278 1.6 12.9 0.00 0.00 0.00 65 1010.7
20260830143514 28 240 4.8 12.9 0.00 0.00 0.00 64 1010.6
20260830143012 28 252 1.6 8.0 0.00 0.00 0.00 66 1010.6
20260830142513 27 240 4.8 11.3 0.00 0.00 0.00 68 1010.7
20260830142010 27 195 0.0 6.4 0.00 0.00 0.00 72 1010.5